Regional Weather Roundup
Issued by NWS Charleston, SC

Current Version | Previous Version | Graphics & Text | Print | Product List | Glossary On
Versions: 1 2 3 4 5 6 7 8 9 10 11 12 13 14 15 16 17 18 19 20 21 22 23 24 25 26 27 28 29 30 31 32 33 34 35 36 37 38 39 40 41 42 43 44 45 46 47 48 49 50
686
ASUS42 KCHS 230112
RWRCHS

REGIONAL WEATHER ROUNDUP
NATIONAL WEATHER SERVICE CHARLESTON SC
900 PM EDT MON MAY 22 2017

NOTE: "FAIR" INDICATES FEW OR NO CLOUDS BELOW 12,000 FEET WITH NO
SIGNIFICANT WEATHER AND/OR OBSTRUCTIONS TO VISIBILITY.

NOT ALL STATIONS ARE QUALITY CONTROLLED. USE DATA WITH CAUTION...
ESPECIALLY DEWPOINT OBSERVATIONS.

SCZ027-030-031-034>040-042>050-230200-
...SOUTHEAST SOUTH CAROLINA...

CITY           SKY/WX    TMP DP  RH WIND       PRES   REMARKS
N CHARLESTON   LGT RAIN  75  72  90 S3        29.97R
WATERFRONT PRK   N/A     77  74  91 SW5       29.95R
JOHNS ISLAND   MOCLDY    77  75  94 CALM      29.97S
PINOPOLIS        N/A     73  70  88 NE6       29.90R
MONCKS CORNER  RAIN      68  68 100 S3        29.99R
SUMMERVILLE    LGT RAIN  72  70  94 CALM      29.99R
BEAUFORT MCAS  LGT RAIN  76  76 100 S5        29.97R
BEAUFORT ARPT  RAIN      73  73 100 S3        29.96S
HILTON HEAD IS CLOUDY    77  73  88 VRB7G15   29.97S
WALTERBORO     CLOUDY    72  72 100 CALM      29.97S
ALLENDALE      MOCLDY    72  72 100 SE3       29.95F

...SOUTHERN MIDLANDS AND PEE DEE...

CITY           SKY/WX    TMP DP  RH WIND       PRES   REMARKS
GEORGETOWN     HVY RAIN  72  70  94 N6        29.99F
KINGSTREE      RAIN     N/A N/A N/A SE6       29.99R
ORANGEBURG     LGT RAIN  71  69  93 E3        29.98R
BARNWELL       FAIR      72  72 100 E8        29.96F
AIKEN          CLOUDY    68  66  94 SE6       30.00S
MANNING        LGT RAIN  70  70 100 CALM      29.98F
COLUMBIA       CLOUDY    70  67  90 SE3       29.96R
SUMTER         CLOUDY    70  68  94 E3        29.94S
FLORENCE       CLOUDY    70  70 100 E6        29.99F
MYRTLE BEACH   CLOUDY    70  68  94 N12       30.01F
N MYRTLE BEACH LGT RAIN  68  67  96 NE8       30.00F

$$

GAZ063-065-086>088-099>101-113>116-118-119-134>141-150-230200-
...SOUTHEAST GEORGIA...

CITY           SKY/WX    TMP DP  RH WIND       PRES   REMARKS
SAVANNAH ARPT  HVY RAIN  73  70  90 NE8       29.96S
HUNTER AAF     CLOUDY    78  76  93 S7        29.92F
FORT STEWART   CLOUDY    77  72  83 S10       29.91F
STATESBORO     HVY RAIN  72  72 100 W5        29.98R
SYLVANIA       LGT RAIN  72  72  99 S6        29.98R
CLAXTON        CLOUDY   N/A N/A N/A N8        29.94F

...CSRA...CENTRAL AND FAR SOUTHEAST GEORGIA...

CITY           SKY/WX    TMP DP  RH WIND       PRES   REMARKS
THOMSON        MOCLDY    71  70  97 SE3       30.00F
AUGUSTA-BUSH   CLOUDY    72  70  93 CALM      29.95S
AUGUSTA-DANIEL CLOUDY    72  67  84 E6        29.97S
SWAINSBORO     FAIR      73  72  94 CALM      29.97R
VIDALIA        CLOUDY    73  70  88 N10       29.96R
EASTMAN        LGT RAIN  73  73 100 NW3       29.99R
HAZLEHURST     CLOUDY    79  75  87 N6        29.94R
ALMA           CLOUDY    81  68  64 SW3       29.94R
WAYCROSS       MOCLDY    83  74  73 SW6       29.95R HX  90
JESUP          MOCLDY    77  68  73 S7        29.95R
BAXLEY         CLOUDY    82  72  69 W5        29.93S
BRUNSWICK      LGT RAIN  75  73  94 SW5       29.96F
SAINT SIMONS   LGT RAIN  76  71  85 SW6       29.95S

$$

SCZ027-028-034-036>038-045-046-048>050-GAZ119-141-230200-
...LAKE AND SUPPLEMENTAL COASTAL OBSERVATIONS...

STATION/POSITION TIME  TEMP    WIND        PRES    WAVE   SWELL
                       AIR SEA DIR/SP/G            HT/PER HT/PER/DIR
                 (UTC) (F)     (DEG/KT/KT) (MB)    (FT/S) (FT/S/D)
WINYAH BAY       2345   76     260/  2     1015.0
LAKE MURRAY      0020   71     110/  3/  5 1013.5
ACE BASIN NERRS  2345   76        CALM     1015.0
FORT PULASKI     0042   78 80  190/  6/ 12 1014.5S
SAPELO ISLAND    0000   78     190/ 16     1014.0

$$

ANZ835-935-AMZ111-154-330-350-352-354-370-450-454-472-230200-
...C-MAN AND BUOY OBSERVATIONS...

STATION/POSITION TIME  TEMP    WIND        PRES    WAVE   SWELL
                       AIR SEA DIR/SP/G            HT/PER HT/PER/DIR
                 (UTC) (F)     (DEG/KT/KT) (MB)    (FT/S) (FT/S/D)
BUOY 41004       0050   78 78  170/  8/ 10 1014.9R   3/ 9   2/120/ 9
BUOY 41008       2350   78 78  170/ 19/ 21 1013.5    3/ 4   2/110/ 9
FOLLY BEACH CMAN 0000   77     190/ 10/ 12 1015.3R
CAPERS NEARSHORE 0008   79 77  200/ 12/ 16 1014.5R
FRIPP NEARSHORE  0008   78 79  180/  8/ 10 1014.1R


STATION/POSITION TIME  TEMP    WIND        PRES    WAVE   SWELL
                       AIR SEA DIR/SP/G            HT/PER HT/PER/DIR
                 (UTC) (F)     (DEG/KT/KT) (MB)    (FT/S) (FT/S/D)
5E ST. MARYS GA  0030      79                N/A     3/ 4
FRYING PAN BUOY  0050   78 77  200/ 14/ 16 1015.5R   3/ 9   2/ 70/ 9
BUOY 41025       0050   78 78  220/ 17/ 21 1015.4R   4/ 8   3/ 70/ 8
CAPE LOOKOUT NC  0000   76     210/ 10/ 13 1014.9R
BUOY 41002       2350   76 78  180/ 10/ 12 1017.4    3/ 8   3/ 20/ 8
BUOY 41010       0050   78 79  150/ 14/ 16 1016.5R   2/ 9   2/ 60/ 9
ST AUGUSTINE FL  0100   75 81  140/ 12/ 13 1016.2F


$$




USA.gov is the U.S. government's official web portal to all federal, state and local government web resources and services.